Precipitable_Water
0.32 0.31 0.30 0.31 0.31 0.31 0.31 0.30 0.27 0.23 0.23 0.24 0.23 0.26 0.26 0.27 0.28 0.28 0.27 0.26 0.27 0.27 0.26 0.25 0.24 0.24 0.25 0.25 0.26 0.25 0.25 0.24 0.24 0.25 0.27 0.40 0.55 0.65
0.30 0.29 0.29 0.29 0.29 0.29 0.29 0.29 0.28 0.25 0.22 0.24 0.24 0.26 0.27 0.27 0.28 0.28 0.28 0.28 0.27 0.27 0.27 0.27 0.26 0.25 0.24 0.24 0.24 0.24 0.25 0.25 0.24 0.24 0.26 0.27 0.33 0.46
0.28 0.28 0.27 0.28 0.27 0.27 0.27 0.27 0.26 0.25 0.22 0.23 0.25 0.26 0.25 0.25 0.25 0.27 0.27 0.26 0.25 0.26 0.27 0.28 0.28 0.27 0.27 0.26 0.25 0.24 0.23 0.23 0.24 0.24 0.24 0.25 0.26 0.29
0.26 0.26 0.26 0.27 0.27 0.27 0.27 0.26 0.26 0.26 0.25 0.23 0.24 0.24 0.24 0.25 0.25 0.25 0.26 0.27 0.26 0.25 0.26 0.27 0.28 0.28 0.28 0.27 0.26 0.25 0.24 0.24 0.24 0.24 0.24 0.24 0.25 0.27
0.25 0.25 0.25 0.26 0.25 0.26 0.27 0.27 0.28 0.28 0.28 0.26 0.25 0.26 0.26 0.27 0.27 0.27 0.26 0.26 0.27 0.26 0.28 0.28 0.27 0.27 0.28 0.28 0.27 0.27 0.26 0.25 0.24 0.22 0.23 0.23 0.24 0.25
0.24 0.25 0.25 0.25 0.25 0.25 0.26 0.26 0.27 0.26 0.27 0.26 0.26 0.25 0.26 0.26 0.28 0.25 0.23 0.26 0.25 0.27 0.27 0.27 0.27 0.27 0.28 0.27 0.27 0.25 0.24 0.24 0.25 0.25 0.25 0.26 0.26 0.26
0.24 0.24 0.25 0.25 0.26 0.26 0.25 0.25 0.25 0.25 0.25 0.26 0.26 0.26 0.25 0.25 0.24 0.25 0.23 0.23 0.25 0.26 0.25 0.24 0.24 0.24 0.24 0.24 0.24 0.24 0.23 0.22 0.23 0.23 0.23 0.24 0.24 0.25
0.23 0.24 0.25 0.26 0.26 0.27 0.28 0.30 0.32 0.27 0.26 0.25 0.25 0.25 0.26 0.26 0.26 0.25 0.23 0.20 0.17 0.25 0.23 0.22 0.25 0.22 0.23 0.23 0.23 0.23 0.24 0.25 0.24 0.24 0.22 0.23 0.24 0.24
0.24 0.24 0.24 0.25 0.26 0.26 0.27 0.27 0.28 0.28 0.30 0.30 0.27 0.26 0.26 0.27 0.25 0.22 0.21 0.20 0.20 0.24 0.26 0.21 0.25 0.22 0.24 0.23 0.23 0.24 0.25 0.25 0.25 0.25 0.24 0.24 0.23 0.24
0.23 0.23 0.23 0.23 0.24 0.24 0.23 0.23 0.23 0.24 0.25 0.26 0.26 0.27 0.27 0.27 0.26 0.25 0.25 0.26 0.27 0.29 0.30 0.18 0.25 0.20 0.23 0.23 0.23 0.23 0.24 0.24 0.24 0.24 0.23 0.24 0.24 0.24
0.21 0.21 0.22 0.22 0.22 0.24 0.24 0.23 0.23 0.24 0.27 0.28 0.30 0.29 0.28 0.28 0.28 0.30 0.26 0.23 0.19 0.22 0.28 0.24 0.23 0.22 0.23 0.22 0.23 0.24 0.24 0.24 0.24 0.24 0.24 0.24 0.24 0.26
0.20 0.21 0.22 0.23 0.24 0.25 0.25 0.25 0.22 0.22 0.23 0.23 0.23 0.23 0.27 0.27 0.26 0.26 0.23 0.19 0.18 0.18 0.23 0.21 0.22 0.25 0.20 0.22 0.23 0.24 0.24 0.24 0.24 0.24 0.25 0.27 0.25 0.26
0.20 0.20 0.23 0.24 0.24 0.24 0.24 0.23 0.23 0.26 0.27 0.27 0.24 0.22 0.22 0.23 0.22 0.22 0.21 0.20 0.18 0.19 0.27 0.27 0.24 0.27 0.25 0.21 0.23 0.25 0.26 0.25 0.25 0.26 0.26 0.25 0.24 0.23
0.22 0.22 0.22 0.23 0.22 0.24 0.27 0.26 0.23 0.22 0.21 0.20 0.18 0.18 0.18 0.18 0.19 0.20 0.21 0.24 0.25 0.24 0.26 0.26 0.24 0.24 0.23 0.22 0.21 0.25 0.26 0.27 0.27 0.25 0.26 0.25 0.25 0.26
0.22 0.23 0.23 0.24 0.23 0.21 0.19 0.19 0.19 0.18 0.17 0.15 0.15 0.15 0.16 0.18 0.21 0.21 0.22 0.23 0.24 0.26 0.27 0.28 0.27 0.27 0.27 0.23 0.22 0.24 0.24 0.26 0.28 0.27 0.26 0.26 0.27 0.29
0.22 0.21 0.23 0.23 0.21 0.19 0.18 0.16 0.15 0.16 0.16 0.16 0.17 0.18 0.19 0.19 0.19 0.21 0.20 0.21 0.22 0.23 0.27 0.28 0.28 0.28 0.25 0.26 0.26 0.24 0.26 0.24 0.27 0.27 0.27 0.29 0.31 0.33
0.24 0.24 0.21 0.19 0.18 0.16 0.16 0.15 0.16 0.17 0.17 0.18 0.18 0.18 0.18 0.19 0.19 0.21 0.21 0.22 0.21 0.21 0.22 0.25 0.27 0.28 0.28 0.27 0.24 0.26 0.26 0.27 0.28 0.28 0.28 0.28 0.31 0.33
0.24 0.20 0.18 0.18 0.17 0.16 0.16 0.16 0.16 0.17 0.17 0.18 0.18 0.18 0.18 0.18 0.19 0.20 0.21 0.21 0.21 0.21 0.22 0.24 0.25 0.24 0.25 0.26 0.29 0.26 0.27 0.27 0.29 0.30 0.30 0.28 0.27 0.31
0.20 0.19 0.18 0.19 0.18 0.19 0.18 0.17 0.17 0.17 0.18 0.18 0.18 0.18 0.18 0.19 0.19 0.19 0.20 0.21 0.21 0.22 0.23 0.24 0.24 0.23 0.20 0.18 0.22 0.27 0.23 0.26 0.28 0.28 0.31 0.30 0.28 0.30
0.20 0.19 0.19 0.19 0.19 0.19 0.20 0.19 0.19 0.19 0.19 0.19 0.18 0.18 0.18 0.18 0.18 0.18 0.19 0.20 0.21 0.22 0.22 0.23 0.23 0.23 0.22 0.20 0.20 0.23 0.27 0.24 0.24 0.23 0.24 0.27 0.30 0.31
0.19 0.19 0.20 0.20 0.20 0.20 0.20 0.20 0.20 0.20 0.20 0.19 0.19 0.19 0.19 0.19 0.18 0.19 0.19 0.20 0.21 0.22 0.21 0.21 0.23 0.26 0.27 0.27 0.21 0.20 0.23 0.26 0.26 0.25 0.25 0.24 0.23 0.23
0.19 0.19 0.20 0.20 0.20 0.20 0.21 0.20 0.20 0.20 0.19 0.19 0.19 0.19 0.19 0.20 0.19 0.19 0.19 0.19 0.20 0.21 0.22 0.23 0.24 0.25 0.24 0.22 0.20 0.20 0.21 0.23 0.25 0.26 0.27 0.26 0.23 0.19
0.18 0.19 0.20 0.20 0.21 0.21 0.21 0.20 0.20 0.20 0.20 0.19 0.19 0.19 0.20 0.19 0.20 0.20 0.20 0.20 0.21 0.21 0.21 0.21 0.23 0.24 0.22 0.22 0.21 0.21 0.21 0.22 0.22 0.22 0.23 0.26 0.26 0.26
Wind_Speed
39 40 40 41 41 41 42 42 41 40 40 40 41 42 43 44 44 44 45 45 46 47 47 48 48 49 49 50 51 51 52 52 53 54 54 56 56 56
40 41 41 42 42 42 43 43 44 44 43 41 42 44 46 46 46 46 46 47 47 48 48 49 49 50 51 51 52 53 54 55 55 55 56 57 58 59
41 41 42 43 43 43 44 44 44 45 46 45 44 45 46 47 47 47 48 48 48 48 49 50 51 51 52 53 54 54 55 57 57 58 59 59 60 61
42 42 43 43 43 44 44 44 45 45 46 46 45 45 46 47 48 49 49 49 49 50 51 51 52 53 53 54 55 56 57 58 59 60 61 62 62 62
42 43 43 43 43 44 44 45 45 45 46 47 46 45 46 46 47 48 49 50 51 51 51 52 53 54 55 55 56 57 59 60 61 62 63 64 65 66
41 41 42 43 44 44 44 44 45 45 46 47 48 47 46 46 47 47 48 49 49 50 51 52 53 54 55 56 57 57 59 60 62 63 64 65 67 68
41 41 42 43 43 44 43 44 44 45 45 47 47 48 47 46 46 46 48 48 49 49 50 50 52 53 54 55 57 58 59 60 62 64 66 67 69 71
38 39 39 40 41 42 44 45 45 46 46 46 46 47 46 46 45 46 47 47 48 48 50 50 51 53 53 55 57 59 61 62 63 65 67 69 71 73
36 36 37 37 38 39 40 42 43 44 45 44 44 44 45 45 46 46 47 48 48 48 49 51 50 52 52 54 56 59 60 62 64 65 67 69 71 74
34 35 35 36 36 37 38 40 41 41 42 43 44 44 45 45 46 46 47 48 49 49 48 50 48 51 52 54 56 57 59 62 63 65 67 69 72 75
33 34 34 35 35 36 37 39 40 40 41 43 44 45 46 46 45 45 44 45 47 46 45 48 49 50 52 53 54 55 57 59 60 62 65 67 70 74
34 34 35 35 36 37 38 38 40 40 41 43 43 44 43 43 44 45 45 46 46 46 45 46 47 47 49 48 49 50 52 55 57 59 61 64 66 69
33 34 34 35 36 36 37 38 39 39 40 39 40 41 41 42 43 43 44 44 43 43 40 41 44 43 44 47 47 47 48 50 52 54 57 60 62 64
33 33 33 34 34 35 35 35 36 38 39 40 41 41 41 40 40 40 39 39 40 41 40 40 41 41 43 45 45 45 46 46 48 50 52 54 56 57
29 30 30 30 30 31 33 35 36 36 36 37 37 37 36 35 35 35 36 36 37 37 37 38 39 41 42 44 45 45 45 44 45 46 48 47 47 47
25 24 25 24 25 27 28 28 28 28 29 30 31 31 31 32 32 32 32 32 33 34 34 36 37 38 40 41 42 43 42 42 42 42 42 42 41 42
21 19 20 21 22 22 22 22 22 23 24 25 26 27 28 29 29 29 29 30 31 31 32 33 34 36 37 38 39 40 39 39 39 39 39 38 37 38
17 18 18 19 19 20 19 19 20 20 21 22 23 25 26 27 27 27 28 29 29 30 31 31 32 33 34 35 36 36 37 36 35 35 35 36 36 36
17 18 19 19 19 19 19 19 19 20 20 21 22 23 24 25 26 26 27 28 28 29 29 30 30 31 32 32 32 33 34 33 33 33 34 35 33 34
17 18 18 18 19 20 20 20 20 20 20 21 22 23 24 24 25 27 27 28 28 29 29 29 29 30 31 32 32 32 32 33 33 35 35 36 36 36
18 18 19 19 20 20 20 21 21 21 21 21 22 22 23 24 25 26 28 29 29 29 30 30 31 32 32 32 32 32 32 33 33 33 33 33 33 34
18 18 19 19 20 21 21 21 22 22 22 22 22 22 22 23 24 25 26 28 28 29 30 31 31 31 31 32 33 33 32 32 32 32 33 34 32 32
18 19 19 20 21 21 22 22 23 23 23 23 23 23 23 23 24 25 26 27 28 29 30 31 31 32 32 32 34 33 33 32 31 31 31 31 32 33
Wind_Direction
264 264 264 264 263 262 262 261 260 261 260 259 259 259 259 261 261 260 259 259 259 258 258 258 258 258 258 257 256 256 255 255 254 253 252 251 250 250
265 265 265 264 264 263 262 262 261 260 260 260 259 260 262 261 261 261 260 260 260 260 259 259 259 259 259 258 258 257 256 256 255 254 253 252 251 250
266 266 265 265 265 264 263 262 262 261 261 262 261 261 262 262 262 261 261 261 261 261 260 260 260 260 259 259 259 258 257 257 256 255 254 253 252 251
267 266 266 266 265 264 263 263 262 262 262 262 263 262 262 262 262 262 262 261 261 262 262 261 261 261 260 260 260 259 258 258 257 256 255 254 253 252
268 267 267 266 265 264 263 263 263 263 262 263 264 264 263 263 263 262 262 262 262 262 262 262 262 262 262 261 261 261 260 259 259 258 257 255 254 253
269 268 267 266 265 265 264 263 263 262 262 263 263 265 265 264 264 264 263 263 263 263 263 263 263 263 262 262 262 262 262 261 260 259 258 256 255 254
270 269 268 267 266 264 264 263 263 263 263 264 264 265 265 265 264 264 264 264 264 263 263 264 264 264 264 264 263 263 263 263 262 260 259 258 256 255
270 270 269 268 267 265 264 264 263 263 263 263 264 265 264 264 265 265 265 265 264 264 264 264 265 265 266 266 266 265 264 264 263 263 261 259 257 256
271 270 270 269 268 267 266 265 264 263 263 263 263 263 264 265 267 267 266 265 264 265 266 265 267 267 267 267 267 267 266 266 265 264 263 261 259 257
271 271 271 270 269 268 267 266 264 263 263 262 263 263 265 266 266 267 266 266 266 266 266 266 269 268 269 269 269 269 268 267 267 265 265 263 261 259
272 272 271 271 270 270 268 267 266 265 264 264 264 265 266 267 267 267 266 267 267 266 267 268 271 271 271 271 271 271 270 268 268 267 266 265 262 260
273 273 273 272 271 271 269 268 268 267 266 265 266 266 266 266 266 266 267 267 267 268 269 269 271 273 273 273 272 271 271 269 269 268 268 266 264 261
274 274 274 273 273 272 271 270 270 270 268 265 265 266 267 267 267 266 265 265 265 266 268 271 273 274 272 274 274 273 272 271 271 270 270 268 265 262
274 275 274 274 274 274 272 271 272 271 269 268 267 267 267 267 266 266 264 263 264 266 270 272 272 273 275 275 275 275 273 273 272 273 272 270 267 262
275 275 275 276 276 276 275 275 274 272 270 269 267 267 265 265 265 265 264 264 265 267 270 272 273 275 275 276 277 275 275 273 273 274 274 270 267 261
277 275 275 275 279 281 281 279 275 272 270 268 267 266 265 264 264 264 264 264 266 269 272 274 275 277 278 277 276 277 275 274 274 275 272 270 264 259
276 273 276 280 283 285 285 282 279 275 273 271 269 268 266 265 264 263 263 264 267 271 275 276 278 278 279 280 278 277 276 276 275 274 269 267 264 259
273 276 279 283 285 286 289 288 283 280 278 276 274 271 269 267 264 262 263 266 269 273 277 278 281 282 281 280 279 278 275 276 276 272 268 266 263 257
274 278 280 283 286 287 288 289 289 285 282 280 278 275 273 268 265 263 266 270 271 274 279 280 281 283 283 282 283 280 278 276 276 273 268 264 261 256
275 279 282 285 286 288 289 289 289 287 286 284 282 280 276 270 267 265 267 270 274 276 278 281 282 283 283 285 284 281 280 279 276 272 269 265 261 259
278 280 282 286 289 289 290 290 288 288 287 286 285 283 279 273 270 269 269 271 274 277 278 280 282 285 285 286 284 282 280 278 278 274 271 266 262 258
281 282 284 288 291 291 291 291 290 288 287 287 286 285 283 278 274 273 272 273 275 278 280 282 283 285 284 285 285 284 282 280 278 275 269 264 260 256
283 285 287 290 292 292 292 292 290 289 287 287 285 285 284 281 278 277 276 276 277 280 283 284 285 285 284 285 285 285 283 280 279 276 271 265 260 257